{"data":{"norad_id":55418,"intl_designator":"2023-014AD","name":"STARLINK-5030","alt_names":[],"object_type":"PAYLOAD","status":"ACTIVE","operator":null,"country":"US","launch_date":"2023-01-31","launch_site_code":"AFWTR","launch_vehicle":null,"mission":null,"orbit_class":"UNKNOWN","rcs_meters":null,"size_class":null,"mass_kg":null,"dimensions":null,"purposes":["comms"],"wikipedia_slug":null,"has_3d_model":false,"image_url":null,"decayed_at":null,"tle_current":{"epoch":"2026-05-24T19:22:44.598432Z","epoch_age_seconds":88993,"freshness":"FRESH","line1":"1 55418U 23014AD  26144.80746063 -.00000548  00000+0 -38141-4 0  9993","line2":"2 55418  69.9982 252.5416 0003260 264.6775  95.4012 14.98339022182969","mean_motion":14.98339022,"eccentricity":0.000326,"inclination_deg":69.9982,"raan_deg":252.5416,"arg_perigee_deg":264.6775,"mean_anomaly_deg":95.4012,"bstar":-3.8141e-5,"rev_number":18296,"period_min":96.106420433332,"perigee_km":569.76223750648,"apogee_km":574.2937450808,"semimajor_km":6950.1649912936,"source":"CELESTRAK","updated_at":"2026-05-25T13:38:17.797673Z"}}}